T7FAB VOMM-VIDP

Flight info

Callsign T7FAB
Flight time 2h 25m
Altitude 40000
Route KAMGU2B KAMGU Q24 BAVOX BAVOX6C
Aircraft F2TH/M-SDE2E3FGHIJ1J3J4J5RWXYZ/LB1

Departure

Time 2026-04-28 05:53
Airport Chennai International Airport (VOMM)

Arrival

Time 2026-04-28 08:19
Airport Indira Gandhi International Airport (VIDP)
Time Latitude Longitude Altitude Speed Heading
2026-04-28 05:27 12.99155 80.17930 59 ft 0 kts 160°
2026-04-28 05:36 12.99166 80.17926 59 ft 7 kts 160°
2026-04-28 05:36 12.99177 80.17922 59 ft 7 kts 160°
2026-04-28 05:36 12.99188 80.17918 59 ft 7 kts 160°
2026-04-28 05:37 12.99198 80.17913 59 ft 7 kts 146°
2026-04-28 05:37 12.99207 80.17905 59 ft 7 kts 122°
2026-04-28 05:37 12.99210 80.17894 59 ft 7 kts 95°
2026-04-28 05:37 12.99208 80.17882 59 ft 7 kts 72°
2026-04-28 05:38 12.99207 80.17880 59 ft 0 kts 71°
2026-04-28 05:50 12.99214 80.17897 59 ft 5 kts 69°
2026-04-28 05:50 12.99230 80.17940 58 ft 10 kts 72°
2026-04-28 05:50 12.99258 80.18014 58 ft 11 kts 68°
2026-04-28 05:50 12.99286 80.18090 59 ft 7 kts 69°
2026-04-28 05:51 12.99307 80.18148 59 ft 12 kts 69°
2026-04-28 05:51 12.99335 80.18210 58 ft 7 kts 46°
2026-04-28 05:51 12.99357 80.18213 59 ft 3 kts 308°
2026-04-28 05:51 12.99377 80.18173 59 ft 5 kts 298°
2026-04-28 05:52 12.99407 80.18115 59 ft 13 kts 298°
2026-04-28 05:52 12.99433 80.18066 59 ft 6 kts 297°
2026-04-28 05:52 12.99446 80.18014 59 ft 7 kts 259°
2026-04-28 05:52 12.99406 80.17900 59 ft 38 kts 249°
2026-04-28 05:53 12.99217 80.17395 59 ft 111 kts 249°
2026-04-28 05:53 12.98881 80.16489 232 ft 152 kts 248°
2026-04-28 05:53 12.98458 80.15432 906 ft 168 kts 246°
2026-04-28 05:53 12.98089 80.14279 1712 ft 175 kts 252°
2026-04-28 05:54 12.98163 80.12970 2269 ft 195 kts 273°
2026-04-28 05:54 12.98781 80.11676 2773 ft 210 kts 298°
2026-04-28 05:54 12.99917 80.10696 3341 ft 219 kts 322°
2026-04-28 05:54 13.01387 80.10235 3907 ft 226 kts 346°
2026-04-28 05:55 13.02986 80.10373 4314 ft 238 kts
2026-04-28 05:55 13.04551 80.11048 4428 ft 254 kts 26°
2026-04-28 05:55 13.06063 80.11913 4810 ft 242 kts 30°
2026-04-28 05:55 13.07558 80.12705 5304 ft 247 kts 27°
2026-04-28 05:56 13.09203 80.13391 5492 ft 256 kts 21°
2026-04-28 05:56 13.10902 80.13808 5838 ft 243 kts 13°
2026-04-28 05:56 13.12581 80.14101 6351 ft 249 kts 10°
2026-04-28 05:56 13.14294 80.14391 6911 ft 253 kts
2026-04-28 05:57 13.16072 80.14681 7501 ft 257 kts 10°
2026-04-28 05:57 13.17849 80.14906 8024 ft 255 kts
2026-04-28 05:57 13.19617 80.15011 8538 ft 258 kts
2026-04-28 05:57 13.21425 80.15008 9015 ft 260 kts
2026-04-28 05:58 13.23250 80.14935 9488 ft 263 kts
2026-04-28 05:58 13.25115 80.14851 9944 ft 275 kts 360°
2026-04-28 05:58 13.27080 80.14758 10401 ft 290 kts 360°
2026-04-28 05:58 13.29131 80.14572 10856 ft 302 kts 356°
2026-04-28 05:59 13.31242 80.14184 11314 ft 311 kts 351°
2026-04-28 05:59 13.33342 80.13605 11759 ft 321 kts 344°
2026-04-28 05:59 13.35468 80.12806 12217 ft 330 kts 340°
2026-04-28 05:59 13.37546 80.11903 12671 ft 335 kts 339°
2026-04-28 06:00 13.39761 80.10936 13189 ft 338 kts 339°
2026-04-28 06:00 13.41936 80.09987 13692 ft 339 kts 339°
2026-04-28 06:00 13.44105 80.09040 14194 ft 340 kts 340°
2026-04-28 06:00 13.46292 80.08089 14699 ft 340 kts 340°
2026-04-28 06:01 13.48460 80.07147 15198 ft 339 kts 340°
2026-04-28 06:01 13.50636 80.06203 15698 ft 339 kts 340°
2026-04-28 06:01 13.52690 80.05314 16169 ft 339 kts 340°
2026-04-28 06:01 13.54864 80.04374 16629 ft 340 kts 339°
2026-04-28 06:02 13.57071 80.03420 17085 ft 342 kts 339°
2026-04-28 06:02 13.59319 80.02451 17527 ft 361 kts 339°
2026-04-28 06:02 13.61629 80.01456 18004 ft 360 kts 339°
2026-04-28 06:02 13.63933 80.00458 18503 ft 354 kts 338°
2026-04-28 06:03 13.66196 79.99476 19003 ft 349 kts 338°
2026-04-28 06:03 13.68418 79.98511 19501 ft 345 kts 338°
2026-04-28 06:03 13.70642 79.97546 20003 ft 347 kts 337°
2026-04-28 06:03 13.72851 79.96587 20499 ft 349 kts 337°
2026-04-28 06:04 13.73746 79.96199 20700 ft 349 kts 336°
2026-04-28 06:04 13.76020 79.95213 21208 ft 351 kts 336°
2026-04-28 06:04 13.78275 79.94232 21710 ft 353 kts 336°
2026-04-28 06:04 13.80541 79.93245 22200 ft 354 kts 335°
2026-04-28 06:05 13.82781 79.92268 22641 ft 356 kts 335°
2026-04-28 06:05 13.85056 79.91274 23069 ft 358 kts 335°
2026-04-28 06:05 13.87376 79.90261 23501 ft 358 kts 335°
2026-04-28 06:05 13.89672 79.89256 23917 ft 359 kts 335°
2026-04-28 06:06 13.91929 79.88269 24314 ft 360 kts 335°
2026-04-28 06:06 13.94240 79.87257 24716 ft 361 kts 335°
2026-04-28 06:06 13.96552 79.86245 25117 ft 361 kts 335°
2026-04-28 06:06 13.98870 79.85231 25518 ft 362 kts 336°
2026-04-28 06:07 14.01195 79.84215 25919 ft 363 kts 336°
2026-04-28 06:07 14.03527 79.83197 26313 ft 365 kts 336°
2026-04-28 06:07 14.05856 79.82180 26673 ft 368 kts 336°
2026-04-28 06:07 14.08220 79.81148 27026 ft 370 kts 336°
2026-04-28 06:08 14.10603 79.80107 27379 ft 372 kts 336°
2026-04-28 06:08 14.12993 79.79064 27730 ft 373 kts 336°
2026-04-28 06:08 14.15393 79.78016 28081 ft 375 kts 336°
2026-04-28 06:08 14.17810 79.76960 28433 ft 377 kts 336°
2026-04-28 06:09 14.19975 79.76014 28747 ft 379 kts 336°
2026-04-28 06:09 14.22379 79.74964 29090 ft 381 kts 335°
2026-04-28 06:09 14.24835 79.73890 29405 ft 384 kts 335°
2026-04-28 06:09 14.27306 79.72811 29709 ft 387 kts 335°
2026-04-28 06:10 14.29798 79.71726 30012 ft 389 kts 335°
2026-04-28 06:10 14.32295 79.70639 30313 ft 391 kts 334°
2026-04-28 06:10 14.34819 79.69536 30616 ft 392 kts 334°
2026-04-28 06:10 14.37340 79.68433 30917 ft 394 kts 334°
2026-04-28 06:11 14.38622 79.67872 31069 ft 395 kts 334°
2026-04-28 06:11 14.40942 79.66855 31344 ft 397 kts 334°
2026-04-28 06:11 14.43389 79.65782 31634 ft 398 kts 334°
2026-04-28 06:11 14.46044 79.64617 31947 ft 399 kts 334°
2026-04-28 06:12 14.48630 79.63497 32249 ft 400 kts 332°
2026-04-28 06:12 14.51097 79.62422 32539 ft 400 kts 332°
2026-04-28 06:12 14.53657 79.61299 32840 ft 400 kts 333°
2026-04-28 06:12 14.56137 79.60207 33131 ft 400 kts 333°
2026-04-28 06:13 14.58791 79.59037 33443 ft 400 kts 333°
2026-04-28 06:13 14.61352 79.57904 33724 ft 401 kts 334°
2026-04-28 06:13 14.63890 79.56784 33977 ft 402 kts 334°
2026-04-28 06:13 14.66469 79.55649 34229 ft 404 kts 334°
2026-04-28 06:14 14.69103 79.54492 34484 ft 405 kts 333°
2026-04-28 06:14 14.71702 79.53350 34734 ft 407 kts 333°
2026-04-28 06:14 14.74311 79.52205 34985 ft 408 kts 333°
2026-04-28 06:14 14.76924 79.51058 35235 ft 408 kts 333°
2026-04-28 06:15 14.79507 79.49924 35483 ft 409 kts 333°
2026-04-28 06:15 14.82131 79.48771 35733 ft 410 kts 333°
2026-04-28 06:15 14.84755 79.47619 35983 ft 410 kts 333°
2026-04-28 06:15 14.87390 79.46460 36234 ft 410 kts 333°
2026-04-28 06:16 14.90011 79.45307 36484 ft 410 kts 333°
2026-04-28 06:16 14.92644 79.44155 36734 ft 411 kts 333°
2026-04-28 06:16 14.95326 79.43109 36985 ft 412 kts 336°
2026-04-28 06:16 14.98051 79.42172 37235 ft 413 kts 338°
2026-04-28 06:17 15.00805 79.41316 37486 ft 414 kts 340°
2026-04-28 06:17 15.03588 79.40548 37736 ft 414 kts 341°
2026-04-28 06:17 15.06393 79.39836 37974 ft 415 kts 342°
2026-04-28 06:18 15.12031 79.38451 38383 ft 416 kts 342°
2026-04-28 06:18 15.14520 79.37848 38560 ft 417 kts 342°
2026-04-28 06:18 15.17356 79.37166 38761 ft 417 kts 342°
2026-04-28 06:18 15.20181 79.36487 38961 ft 418 kts 342°
2026-04-28 06:19 15.23018 79.35806 39151 ft 419 kts 342°
2026-04-28 06:19 15.25866 79.35121 39311 ft 420 kts 342°
2026-04-28 06:19 15.28695 79.34440 39461 ft 422 kts 342°
2026-04-28 06:19 15.31559 79.33749 39588 ft 424 kts 342°
2026-04-28 06:20 15.34442 79.33053 39679 ft 427 kts 342°
2026-04-28 06:20 15.40222 79.31652 39791 ft 434 kts 342°
2026-04-28 06:21 15.46046 79.30239 39895 ft 438 kts 342°
2026-04-28 06:21 15.52015 79.28791 39919 ft 441 kts 342°
2026-04-28 06:22 15.57629 79.27430 39917 ft 442 kts 342°
2026-04-28 06:22 15.63677 79.25962 39915 ft 442 kts 342°
2026-04-28 06:23 15.69679 79.24505 39910 ft 443 kts 342°
2026-04-28 06:23 15.75690 79.23043 39908 ft 445 kts 342°
2026-04-28 06:24 15.81725 79.21571 39907 ft 450 kts 342°
2026-04-28 06:24 15.85998 79.20529 39903 ft 452 kts 342°
2026-04-28 06:25 15.91903 79.19089 39901 ft 455 kts 342°
2026-04-28 06:25 15.98115 79.17576 39900 ft 461 kts 342°
2026-04-28 06:26 16.04374 79.16060 39896 ft 465 kts 342°
2026-04-28 06:26 16.10695 79.14534 39894 ft 467 kts 342°
2026-04-28 06:27 16.16976 79.12965 39893 ft 462 kts 347°
2026-04-28 06:27 16.23108 79.11472 39889 ft 459 kts 348°
2026-04-28 06:28 16.29402 79.09963 39888 ft 458 kts 348°
2026-04-28 06:28 16.35607 79.08506 39887 ft 458 kts 342°
2026-04-28 06:29 16.41839 79.07071 39887 ft 458 kts 341°
2026-04-28 06:29 16.47960 79.05605 39884 ft 457 kts 340°
2026-04-28 06:30 16.54153 79.04096 39883 ft 456 kts 340°
2026-04-28 06:30 16.60294 79.02592 39882 ft 456 kts 340°
2026-04-28 06:31 16.65450 79.01329 39881 ft 456 kts 340°
2026-04-28 06:31 16.69629 79.00305 39880 ft 456 kts 340°
2026-04-28 06:32 16.75765 78.98800 39974 ft 452 kts 345°
2026-04-28 06:32 16.81926 78.97227 39999 ft 455 kts 346°
2026-04-28 06:33 16.87703 78.95812 39999 ft 456 kts 347°
2026-04-28 06:33 16.93709 78.94363 39999 ft 457 kts 347°
2026-04-28 06:34 17.00117 78.92822 39999 ft 457 kts 347°
2026-04-28 06:34 17.05489 78.91528 39999 ft 458 kts 347°
2026-04-28 06:35 17.11471 78.90081 39999 ft 458 kts 347°
2026-04-28 06:35 17.17676 78.88576 39920 ft 454 kts 346°
2026-04-28 06:36 17.23774 78.87113 39912 ft 443 kts 343°
2026-04-28 06:36 17.28214 78.86058 39909 ft 438 kts 341°
2026-04-28 06:37 17.33823 78.84702 39910 ft 441 kts 340°
2026-04-28 06:37 17.39717 78.83230 39912 ft 445 kts 339°
2026-04-28 06:38 17.45699 78.81730 39909 ft 447 kts 340°
2026-04-28 06:38 17.50115 78.80642 39909 ft 448 kts 340°
2026-04-28 06:39 17.56259 78.79145 39910 ft 450 kts 340°
2026-04-28 06:39 17.60884 78.78024 39909 ft 450 kts 340°
2026-04-28 06:40 17.67340 78.76462 39909 ft 451 kts 340°
2026-04-28 06:40 17.73461 78.74981 39911 ft 451 kts 340°
2026-04-28 06:41 17.79540 78.73513 39911 ft 449 kts 339°
2026-04-28 06:41 17.85621 78.72042 39911 ft 447 kts 339°
2026-04-28 06:42 17.91666 78.70573 39911 ft 445 kts 339°
2026-04-28 06:42 17.95915 78.69537 39913 ft 444 kts 339°
2026-04-28 06:43 18.01936 78.68066 39914 ft 443 kts 339°
2026-04-28 06:43 18.07950 78.66593 39915 ft 443 kts 339°
2026-04-28 06:44 18.13798 78.65156 39916 ft 442 kts 339°
2026-04-28 06:44 18.19810 78.63672 39916 ft 442 kts 339°
2026-04-28 06:45 18.25694 78.62217 39917 ft 442 kts 339°
2026-04-28 06:45 18.31779 78.60710 39915 ft 444 kts 339°
2026-04-28 06:46 18.37809 78.59214 39915 ft 445 kts 339°
2026-04-28 06:46 18.43809 78.57723 39914 ft 446 kts 339°
2026-04-28 06:47 18.49897 78.56208 39911 ft 447 kts 339°
2026-04-28 06:47 18.55959 78.54701 39909 ft 447 kts 339°
2026-04-28 06:48 18.62006 78.53197 39906 ft 447 kts 339°
2026-04-28 06:48 18.68010 78.51703 39905 ft 447 kts 339°
2026-04-28 06:49 18.74184 78.50166 39905 ft 446 kts 339°
2026-04-28 06:49 18.80237 78.48658 39904 ft 447 kts 339°
2026-04-28 06:50 18.86269 78.47151 39904 ft 448 kts 339°
2026-04-28 06:50 18.92347 78.45592 39905 ft 448 kts 345°
2026-04-28 06:51 18.98389 78.44036 39904 ft 447 kts 346°
2026-04-28 06:51 19.04452 78.42539 39904 ft 447 kts 346°
2026-04-28 06:52 19.10411 78.41085 39904 ft 447 kts 346°
2026-04-28 06:52 19.16611 78.39549 39904 ft 447 kts 346°
2026-04-28 06:53 19.22700 78.37982 39904 ft 447 kts 346°
2026-04-28 06:53 19.28643 78.36423 39904 ft 447 kts 345°
2026-04-28 06:54 19.34793 78.34828 39904 ft 448 kts 339°
2026-04-28 06:54 19.40850 78.33268 39905 ft 448 kts 339°
2026-04-28 06:55 19.46708 78.31696 39904 ft 446 kts 338°
2026-04-28 06:55 19.52947 78.30002 39904 ft 446 kts 338°
2026-04-28 06:56 19.58969 78.28390 39904 ft 446 kts 339°
2026-04-28 06:56 19.65007 78.26800 39904 ft 446 kts 339°
2026-04-28 06:57 19.69868 78.25527 39904 ft 446 kts 339°
2026-04-28 06:57 19.76045 78.23911 39904 ft 446 kts 339°
2026-04-28 06:58 19.82080 78.22326 39904 ft 447 kts 339°
2026-04-28 06:58 19.88127 78.20735 39904 ft 448 kts 339°
2026-04-28 06:59 19.94265 78.19123 39904 ft 449 kts 339°
2026-04-28 06:59 20.00395 78.17514 39904 ft 450 kts 339°
2026-04-28 07:00 20.06478 78.15916 39904 ft 450 kts 339°
2026-04-28 07:00 20.12550 78.14318 39904 ft 450 kts 339°
2026-04-28 07:01 20.18671 78.12706 39904 ft 450 kts 339°
2026-04-28 07:01 20.24751 78.11103 39904 ft 450 kts 339°
2026-04-28 07:02 20.30809 78.09498 39874 ft 450 kts 340°
2026-04-28 07:02 20.36889 78.07884 39865 ft 451 kts 341°
2026-04-28 07:03 20.42989 78.06272 39868 ft 451 kts 340°
2026-04-28 07:03 20.49085 78.04661 39868 ft 451 kts 340°
2026-04-28 07:04 20.55191 78.03060 39872 ft 452 kts 341°
2026-04-28 07:04 20.61310 78.01516 39878 ft 452 kts 341°
2026-04-28 07:05 20.67435 78.00003 39876 ft 452 kts 341°
2026-04-28 07:05 20.73656 77.98477 39874 ft 452 kts 343°
2026-04-28 07:06 20.79757 77.96949 39877 ft 450 kts 345°
2026-04-28 07:06 20.85847 77.95454 39874 ft 449 kts 345°
2026-04-28 07:07 20.91934 77.93988 39872 ft 449 kts 342°
2026-04-28 07:07 20.98006 77.92526 39875 ft 450 kts 342°
2026-04-28 07:08 21.04121 77.91028 39873 ft 450 kts 341°
2026-04-28 07:08 21.10180 77.89532 39751 ft 450 kts 342°
2026-04-28 07:09 21.16339 77.88021 39746 ft 450 kts 342°
2026-04-28 07:09 21.22445 77.86537 39745 ft 450 kts 341°
2026-04-28 07:10 21.28533 77.85032 39745 ft 450 kts 341°
2026-04-28 07:10 21.34670 77.83500 39747 ft 449 kts 342°
2026-04-28 07:11 21.40722 77.81991 39745 ft 448 kts 342°
2026-04-28 07:11 21.46795 77.80479 39747 ft 448 kts 342°
2026-04-28 07:12 21.52871 77.78968 39749 ft 447 kts 342°
2026-04-28 07:12 21.58947 77.77456 39748 ft 447 kts 342°
2026-04-28 07:13 21.65014 77.75947 39749 ft 447 kts 342°
2026-04-28 07:13 21.71049 77.74445 39749 ft 447 kts 342°
2026-04-28 07:14 21.77114 77.72935 39748 ft 447 kts 342°
2026-04-28 07:14 21.83207 77.71418 39749 ft 446 kts 342°
2026-04-28 07:15 21.89263 77.69909 39749 ft 446 kts 342°
2026-04-28 07:15 21.95271 77.68409 39748 ft 446 kts 342°
2026-04-28 07:16 22.01326 77.66895 39749 ft 446 kts 342°
2026-04-28 07:16 22.07373 77.65359 39749 ft 446 kts 341°
2026-04-28 07:17 22.13407 77.63804 39748 ft 446 kts 341°
2026-04-28 07:17 22.19440 77.62239 39749 ft 446 kts 341°
2026-04-28 07:18 22.25429 77.60680 39749 ft 446 kts 341°
2026-04-28 07:18 22.31498 77.59098 39748 ft 446 kts 341°
2026-04-28 07:19 22.37495 77.57532 39750 ft 446 kts 341°
2026-04-28 07:19 22.43543 77.55952 39752 ft 447 kts 341°
2026-04-28 07:20 22.49593 77.54371 39752 ft 447 kts 341°
2026-04-28 07:20 22.55646 77.52774 39756 ft 447 kts 344°
2026-04-28 07:21 22.61698 77.51170 39756 ft 447 kts 344°
2026-04-28 07:21 22.67750 77.49586 39754 ft 447 kts 344°
2026-04-28 07:22 22.76829 77.47222 39776 ft 446 kts 342°
2026-04-28 07:22 22.82879 77.45671 39826 ft 447 kts 341°
2026-04-28 07:23 22.87902 77.44357 39826 ft 446 kts 341°
2026-04-28 07:23 22.93944 77.42764 39824 ft 446 kts 341°
2026-04-28 07:24 22.99980 77.41167 39823 ft 446 kts 341°
2026-04-28 07:24 23.06010 77.39571 39820 ft 446 kts 341°
2026-04-28 07:25 23.12051 77.37972 39819 ft 446 kts 341°
2026-04-28 07:25 23.18089 77.36375 39819 ft 446 kts 341°
2026-04-28 07:26 23.24140 77.34830 39818 ft 447 kts 343°
2026-04-28 07:26 23.30323 77.33807 39819 ft 451 kts 348°
2026-04-28 07:27 23.36547 77.33324 39818 ft 452 kts 352°
2026-04-28 07:27 23.42886 77.32979 39818 ft 452 kts 352°
2026-04-28 07:28 23.49174 77.32673 39818 ft 452 kts 352°
2026-04-28 07:28 23.55283 77.32388 39818 ft 451 kts 352°
2026-04-28 07:29 23.61625 77.32097 39819 ft 451 kts 352°
2026-04-28 07:29 23.67907 77.31808 39819 ft 451 kts 352°
2026-04-28 07:30 23.74186 77.31518 39820 ft 451 kts 352°
2026-04-28 07:30 23.80467 77.31226 39821 ft 451 kts 352°
2026-04-28 07:31 23.86743 77.30930 39821 ft 451 kts 352°
2026-04-28 07:31 23.92980 77.30639 39821 ft 451 kts 352°
2026-04-28 07:32 23.99288 77.30344 39821 ft 451 kts 352°
2026-04-28 07:32 24.05573 77.30049 39819 ft 451 kts 352°
2026-04-28 07:33 24.11852 77.29755 39817 ft 451 kts 352°
2026-04-28 07:33 24.18087 77.29462 39817 ft 451 kts 352°
2026-04-28 07:34 24.24380 77.29165 39816 ft 451 kts 352°
2026-04-28 07:34 24.30662 77.28867 39816 ft 451 kts 353°
2026-04-28 07:35 24.36932 77.28569 39816 ft 451 kts 353°
2026-04-28 07:35 24.43181 77.28244 39816 ft 447 kts 356°
2026-04-28 07:36 24.49379 77.27934 39815 ft 444 kts 357°
2026-04-28 07:36 24.55513 77.27668 39790 ft 444 kts 354°
2026-04-28 07:37 24.61719 77.27424 39764 ft 446 kts 353°
2026-04-28 07:37 24.67952 77.27128 39759 ft 448 kts 353°
2026-04-28 07:38 24.74198 77.26837 39756 ft 449 kts 353°
2026-04-28 07:38 24.80429 77.26555 39587 ft 454 kts 353°
2026-04-28 07:39 24.83581 77.26416 39395 ft 457 kts 353°
2026-04-28 07:39 24.86713 77.26279 39165 ft 461 kts 353°
2026-04-28 07:39 24.89911 77.26141 38919 ft 464 kts 353°
2026-04-28 07:39 24.93150 77.26003 38669 ft 466 kts 353°
2026-04-28 07:40 24.96415 77.25867 38418 ft 468 kts 353°
2026-04-28 07:40 24.99675 77.25736 38167 ft 469 kts 354°
2026-04-28 07:40 25.02943 77.25609 37917 ft 470 kts 354°
2026-04-28 07:40 25.06226 77.25485 37666 ft 471 kts 354°
2026-04-28 07:41 25.09503 77.25364 37416 ft 472 kts 354°
2026-04-28 07:41 25.12792 77.25244 37166 ft 473 kts 354°
2026-04-28 07:41 25.16085 77.25124 36916 ft 474 kts 354°
2026-04-28 07:41 25.19354 77.25006 36668 ft 475 kts 354°
2026-04-28 07:42 25.22669 77.24885 36417 ft 476 kts 354°
2026-04-28 07:42 25.26022 77.24767 36164 ft 476 kts 354°
2026-04-28 07:42 25.29332 77.24648 35922 ft 476 kts 354°
2026-04-28 07:42 25.32648 77.24529 35712 ft 476 kts 354°
2026-04-28 07:43 25.35911 77.24411 35513 ft 476 kts 354°
2026-04-28 07:43 25.39228 77.24292 35312 ft 477 kts 354°
2026-04-28 07:43 25.42595 77.24171 35109 ft 477 kts 354°
2026-04-28 07:43 25.45919 77.24051 34909 ft 478 kts 354°
2026-04-28 07:44 25.49198 77.23932 34711 ft 478 kts 354°
2026-04-28 07:44 25.52574 77.23809 34508 ft 479 kts 354°
2026-04-28 07:44 25.55910 77.23688 34308 ft 480 kts 354°
2026-04-28 07:44 25.59245 77.23566 34108 ft 480 kts 354°
2026-04-28 07:45 25.62593 77.23444 33907 ft 481 kts 354°
2026-04-28 07:45 25.65939 77.23322 33707 ft 482 kts 354°
2026-04-28 07:45 25.69293 77.23197 33507 ft 482 kts 354°
2026-04-28 07:45 25.72651 77.23075 33306 ft 483 kts 354°
2026-04-28 07:46 25.76023 77.22951 33105 ft 483 kts 355°
2026-04-28 07:46 25.79384 77.22828 32905 ft 483 kts 354°
2026-04-28 07:46 25.82709 77.22708 32706 ft 483 kts 354°
2026-04-28 07:46 25.86064 77.22586 32506 ft 482 kts 354°
2026-04-28 07:47 25.89423 77.22464 32305 ft 482 kts 354°
2026-04-28 07:47 25.92782 77.22341 32104 ft 481 kts 355°
2026-04-28 07:47 25.95999 77.22224 31910 ft 480 kts 355°
2026-04-28 07:47 25.99447 77.22098 31703 ft 478 kts 355°
2026-04-28 07:48 26.02781 77.21977 31501 ft 477 kts 355°
2026-04-28 07:48 26.06092 77.21856 31301 ft 476 kts 355°
2026-04-28 07:48 26.09392 77.21735 31100 ft 475 kts 355°
2026-04-28 07:48 26.11494 77.21655 30972 ft 474 kts 354°
2026-04-28 07:49 26.15981 77.21464 30698 ft 472 kts 354°
2026-04-28 07:49 26.19250 77.21312 30498 ft 470 kts 354°
2026-04-28 07:49 26.22519 77.21154 30297 ft 469 kts 354°
2026-04-28 07:49 26.25785 77.20992 30095 ft 467 kts 354°
2026-04-28 07:50 26.27950 77.20882 29961 ft 466 kts 354°
2026-04-28 07:50 26.31183 77.20716 29760 ft 464 kts 354°
2026-04-28 07:50 26.34407 77.20549 29560 ft 463 kts 354°
2026-04-28 07:50 26.37615 77.20391 29361 ft 460 kts 353°
2026-04-28 07:51 26.40848 77.20230 29158 ft 459 kts 353°
2026-04-28 07:51 26.44040 77.20066 28958 ft 459 kts 353°
2026-04-28 07:51 26.47231 77.19899 28757 ft 459 kts 353°
2026-04-28 07:51 26.50459 77.19728 28554 ft 458 kts 353°
2026-04-28 07:52 26.53652 77.19559 28353 ft 458 kts 353°
2026-04-28 07:52 26.56799 77.19393 28155 ft 457 kts 353°
2026-04-28 07:52 26.59977 77.19225 27954 ft 456 kts 353°
2026-04-28 07:52 26.63147 77.19058 27753 ft 455 kts 353°
2026-04-28 07:53 26.66320 77.18887 27552 ft 456 kts 354°
2026-04-28 07:53 26.69495 77.18714 27351 ft 457 kts 354°
2026-04-28 07:53 26.72674 77.18544 27150 ft 457 kts 354°
2026-04-28 07:53 26.75845 77.18378 26950 ft 457 kts 354°
2026-04-28 07:54 26.79015 77.18209 26750 ft 455 kts 354°
2026-04-28 07:54 26.82169 77.18046 26550 ft 453 kts 354°
2026-04-28 07:54 26.85326 77.17884 26349 ft 452 kts 354°
2026-04-28 07:54 26.88466 77.17723 26148 ft 450 kts 354°
2026-04-28 07:55 26.91584 77.17563 25948 ft 449 kts 354°
2026-04-28 07:55 26.94700 77.17403 25748 ft 447 kts 354°
2026-04-28 07:55 26.97806 77.17244 25547 ft 446 kts 354°
2026-04-28 07:55 27.00899 77.17086 25346 ft 444 kts 354°
2026-04-28 07:56 27.03942 77.16931 25148 ft 442 kts 354°
2026-04-28 07:56 27.07057 77.16771 24926 ft 441 kts 354°
2026-04-28 07:56 27.10126 77.16611 24591 ft 439 kts 354°
2026-04-28 07:56 27.13161 77.16455 24222 ft 432 kts 354°
2026-04-28 07:57 27.16155 77.16303 23846 ft 428 kts 354°
2026-04-28 07:57 27.19115 77.16150 23470 ft 423 kts 354°
2026-04-28 07:57 27.22042 77.15999 23113 ft 420 kts 354°
2026-04-28 07:57 27.24953 77.15848 22800 ft 416 kts 354°
2026-04-28 07:58 27.27839 77.15697 22497 ft 414 kts 354°
2026-04-28 07:58 27.30711 77.15547 22195 ft 411 kts 354°
2026-04-28 07:58 27.33530 77.15399 21898 ft 409 kts 354°
2026-04-28 07:58 27.36360 77.15250 21597 ft 404 kts 354°
2026-04-28 07:59 27.39147 77.15104 21296 ft 399 kts 354°
2026-04-28 07:59 27.41911 77.14959 20995 ft 395 kts 354°
2026-04-28 07:59 27.43451 77.14877 20826 ft 393 kts 354°
2026-04-28 07:59 27.46174 77.14733 20525 ft 390 kts 354°
2026-04-28 08:00 27.48877 77.14591 20224 ft 388 kts 354°
2026-04-28 08:00 27.51565 77.14450 19923 ft 385 kts 354°
2026-04-28 08:00 27.54241 77.14309 19622 ft 383 kts 354°
2026-04-28 08:00 27.56899 77.14170 19322 ft 381 kts 354°
2026-04-28 08:01 27.59540 77.14043 19021 ft 380 kts 355°
2026-04-28 08:01 27.62182 77.14096 18720 ft 380 kts 359°
2026-04-28 08:01 27.64815 77.14373 18420 ft 380 kts
2026-04-28 08:01 27.67425 77.14846 18121 ft 380 kts
2026-04-28 08:02 27.70013 77.15488 17822 ft 379 kts
2026-04-28 08:02 27.72577 77.16216 17522 ft 378 kts 11°
2026-04-28 08:02 27.75119 77.16976 17232 ft 377 kts 11°
2026-04-28 08:02 27.77588 77.17735 16983 ft 375 kts 12°
2026-04-28 08:03 27.80059 77.18510 16736 ft 374 kts 12°
2026-04-28 08:03 27.82452 77.19271 16497 ft 373 kts 12°
2026-04-28 08:03 27.84974 77.20078 16244 ft 372 kts 12°
2026-04-28 08:03 27.87480 77.20883 15991 ft 371 kts 12°
2026-04-28 08:04 27.89964 77.21682 15739 ft 370 kts 12°
2026-04-28 08:04 27.92404 77.22467 15451 ft 367 kts 12°
2026-04-28 08:04 27.94870 77.23260 15088 ft 360 kts 12°
2026-04-28 08:04 27.97255 77.24028 14712 ft 353 kts 12°
2026-04-28 08:05 27.99603 77.24766 14333 ft 347 kts 11°
2026-04-28 08:05 28.01928 77.25136 13954 ft 338 kts
2026-04-28 08:05 28.04264 77.24956 13581 ft 333 kts 348°
2026-04-28 08:05 28.06482 77.24283 13210 ft 325 kts 337°
2026-04-28 08:06 28.08496 77.23180 12836 ft 318 kts 327°
2026-04-28 08:06 28.10256 77.21711 12475 ft 312 kts 317°
2026-04-28 08:06 28.11949 77.20132 12101 ft 311 kts 317°
2026-04-28 08:06 28.13619 77.18572 11723 ft 308 kts 316°
2026-04-28 08:07 28.15281 77.17004 11342 ft 304 kts 316°
2026-04-28 08:07 28.16888 77.15485 10963 ft 296 kts 316°
2026-04-28 08:07 28.18454 77.14000 10649 ft 289 kts 316°
2026-04-28 08:07 28.19963 77.12564 10400 ft 286 kts 316°
2026-04-28 08:08 28.21499 77.11095 10148 ft 284 kts 316°
2026-04-28 08:08 28.23002 77.09649 9896 ft 283 kts 316°
2026-04-28 08:08 28.24435 77.08270 9657 ft 282 kts 316°
2026-04-28 08:08 28.25949 77.06812 9402 ft 281 kts 316°
2026-04-28 08:09 28.27418 77.05395 9156 ft 279 kts 316°
2026-04-28 08:09 28.28885 77.03980 8890 ft 276 kts 316°
2026-04-28 08:09 28.30346 77.02576 8585 ft 272 kts 316°
2026-04-28 08:09 28.31781 77.01194 8272 ft 269 kts 316°
2026-04-28 08:10 28.33200 76.99829 7973 ft 266 kts 317°
2026-04-28 08:10 28.34601 76.98481 7670 ft 261 kts 317°
2026-04-28 08:10 28.35962 76.97170 7372 ft 256 kts 317°
2026-04-28 08:10 28.37310 76.95873 7071 ft 253 kts 317°
2026-04-28 08:11 28.38663 76.94568 6766 ft 250 kts 317°
2026-04-28 08:11 28.39968 76.93310 6466 ft 242 kts 317°
2026-04-28 08:11 28.41234 76.92093 6160 ft 235 kts 317°
2026-04-28 08:11 28.42465 76.90908 5859 ft 230 kts 318°
2026-04-28 08:12 28.43674 76.89740 5559 ft 226 kts 318°
2026-04-28 08:12 28.44866 76.88593 5265 ft 222 kts 318°
2026-04-28 08:12 28.46030 76.87474 5014 ft 217 kts 318°
2026-04-28 08:12 28.47162 76.86381 4763 ft 212 kts 318°
2026-04-28 08:13 28.48300 76.85279 4505 ft 209 kts 318°
2026-04-28 08:13 28.49398 76.84214 4255 ft 206 kts 318°
2026-04-28 08:13 28.50565 76.83352 3971 ft 198 kts 330°
2026-04-28 08:13 28.51923 76.83005 3726 ft 204 kts 349°
2026-04-28 08:14 28.52870 76.83067 3561 ft 208 kts
2026-04-28 08:14 28.54699 76.83835 3370 ft 211 kts 24°
2026-04-28 08:14 28.55483 76.84483 3291 ft 211 kts 35°
2026-04-28 08:14 28.56448 76.85744 3166 ft 213 kts 51°
2026-04-28 08:15 28.57067 76.87272 3049 ft 213 kts 67°
2026-04-28 08:15 28.57513 76.88877 2984 ft 212 kts 71°
2026-04-28 08:15 28.57868 76.90483 2942 ft 206 kts 78°
2026-04-28 08:15 28.57978 76.92101 2946 ft 204 kts 86°
2026-04-28 08:16 28.57854 76.93714 2947 ft 204 kts 96°
2026-04-28 08:16 28.57562 76.95295 2956 ft 204 kts 102°
2026-04-28 08:16 28.57231 76.96855 2946 ft 197 kts 104°
2026-04-28 08:16 28.56908 76.98291 2860 ft 178 kts 105°
2026-04-28 08:17 28.56607 76.99609 2657 ft 169 kts 105°
2026-04-28 08:17 28.56333 77.00828 2425 ft 154 kts 105°
2026-04-28 08:17 28.56069 77.02023 2067 ft 157 kts 104°
2026-04-28 08:17 28.55810 77.03228 1698 ft 156 kts 104°
2026-04-28 08:18 28.55562 77.04412 1353 ft 152 kts 104°
2026-04-28 08:18 28.55325 77.05564 1092 ft 142 kts 104°
2026-04-28 08:18 28.55098 77.06600 942 ft 128 kts 104°
2026-04-28 08:18 28.54883 77.07542 819 ft 118 kts 105°
2026-04-28 08:19 28.54697 77.08327 784 ft 85 kts 106°
2026-04-28 08:19 28.54587 77.08779 784 ft 34 kts 105°
2026-04-28 08:19 28.54552 77.08956 784 ft 15 kts 103°
2026-04-28 08:19 28.54536 77.09035 784 ft 8 kts 103°
2026-04-28 08:20 28.54522 77.09109 784 ft 12 kts 103°
2026-04-28 08:20 28.54499 77.09223 784 ft 17 kts 102°
2026-04-28 08:20 28.54477 77.09345 784 ft 16 kts 97°
2026-04-28 08:20 28.54480 77.09494 784 ft 20 kts 79°
2026-04-28 08:21 28.54504 77.09613 784 ft 10 kts 76°
2026-04-28 08:21 28.54527 77.09706 784 ft 13 kts 72°
2026-04-28 08:21 28.54552 77.09787 784 ft 12 kts 59°
2026-04-28 08:21 28.54624 77.09811 784 ft 14 kts 357°
2026-04-28 08:22 28.54668 77.09763 784 ft 12 kts 285°
2026-04-28 08:22 28.54692 77.09663 784 ft 9 kts 285°
2026-04-28 08:22 28.54705 77.09613 784 ft 5 kts 296°
2026-04-28 08:22 28.54743 77.09607 784 ft 9 kts 12°
2026-04-28 08:23 28.54794 77.09621 784 ft 9 kts 14°
2026-04-28 08:23 28.54859 77.09640 784 ft 8 kts 14°
2026-04-28 08:23 28.54890 77.09649 784 ft 0 kts 14°
2026-04-28 08:23 28.54899 77.09651 784 ft 1 kts 360°
2026-04-28 08:24 28.54910 77.09642 784 ft 1 kts 308°
2026-04-28 08:24 28.54913 77.09619 784 ft 3 kts 277°
2026-04-28 08:24 28.54915 77.09609 784 ft 0 kts 283°